TJS-23

Last updated on Sun Jun 21 2026 00:03:10 GMT+0000 (Coordinated Universal Time)

1 67226U 25306A 26170.59511561 .00000010 00000+0 00000+0 0 9997 2 67226 5.5825 297.4740 0004725 175.6001 184.5544 1.00266223 1915
UTC large
Height (km)
Speed (km/s)
/
Latitude / Longitude
Inclination (degrees)
Orbital Period (minutes)
Azimuth
Elevation
Range (km)
Doppler Factor

Next 0 passes for location: London (51.5072 / 0.1276)

No passes found over London.
TJS-23